Weather History for Middletown, OH

Change the Weather History Date:

Thursday, February 14, 2013

  Actual Average (KDAY) Record (KDAY)
Temperature  
Mean Temperature 40 °F 31 °F  
Max Temperature 52 °F 39 °F 67 °F (1918)
Min Temperature 28 °F 23 °F -9 °F (1905)
Degree Days  
Heating Degree Days 25 34  
Month to date heating degree days 499  
Since 1 July heating degree days 3822  
Cooling Degree Days 0 0  
Month to date cooling degree days 0  
Year to date cooling degree days 0  
Moisture  
Dew Point 35 °F    
Average Humidity 86    
Maximum Humidity 100    
Minimum Humidity 58    
Precipitation  
Precipitation 0.00 in 0.08 in 2.27 in (1908)
Month to date precipitation 1.13  
Year to date precipitation 3.84  
Snow  
Snow 0.00 in 0.20 in 4.10 in (1977)
Month to date snowfall 3.1  
Since 1 July snowfall 16.5  
Snow Depth -    
Sea Level Pressure  
Sea Level Pressure 29.90 in    
Wind  
Wind Speed 8 mph (SW)    
Max Wind Speed 22 mph    
Max Gust Speed 29 mph    
Visibility 9 miles    
Events      
T = Trace of Precipitation, MM = Missing Value Source: NWS Daily Summary

Daily Weather History Graph

Daily Weather History Graph

Search for Another Location

Airport:

Trip Planner

Search our weather history database for the weather conditions in past years. The results will help you decide how hot, cold, wet, or windy it might be!

Date:

Astronomy

Feb. 14, 2013 Rise Set
Actual Time 7:30 AM EST 6:13 PM EST
Civil Twilight 7:03 AM EST 6:40 PM EST
Nautical Twilight 6:31 AM EST 7:12 PM EST
Astronomical Twilight 6:00 AM EST 7:43 PM EST
Moon 9:33 AM EST (2/14) 11:13 PM EST (2/14)
Length of Visible Light 11h 37m
Length of Day
10h 42m
Waxing Crescent, 21% of the Moon is Illuminated
Feb 14
Waxing Crescent
Feb 17
First Quarter
Feb 25
Full
Mar 4
Last Quarter
Mar 11
New

Hourly Weather History & Observations

Time (EST) Temp. Windchill Dew Point Humidity Pressure Visibility Wind Dir Wind Speed Gust Speed Precip Events Conditions
12:15 AM 30.2 °F 26.7 °F 30.2 °F 100% 29.91 in 5.0 mi SW 3.5 mph - N/A   Overcast
12:35 AM 30.2 °F 26.7 °F 30.2 °F 100% 29.90 in 5.0 mi SW 3.5 mph - N/A   Overcast
12:55 AM 32.5 °F 29.3 °F 32.2 °F 99% 29.90 in 7.0 mi SSW 3.5 mph - N/A   Scattered Clouds
1:15 AM 30.7 °F 27.3 °F 30.2 °F 98% 29.91 in 7.0 mi SW 3.5 mph - N/A   Clear
1:35 AM 30.2 °F 26.7 °F 30.2 °F 100% 29.91 in 5.0 mi SW 3.5 mph - N/A   Clear
1:55 AM 30.2 °F 26.7 °F 30.2 °F 100% 29.91 in 7.0 mi SW 3.5 mph - N/A   Clear
2:15 AM 29.1 °F - 29.1 °F 100% 29.91 in 7.0 mi Calm Calm - N/A   Clear
2:35 AM 30.2 °F 24.3 °F 30.2 °F 100% 29.91 in 10.0 mi SW 5.8 mph - N/A   Clear
2:55 AM 32.4 °F 27.9 °F 32.2 °F 99% 29.91 in 10.0 mi SSW 4.6 mph - N/A   Clear
3:15 AM 30.2 °F 25.4 °F 30.2 °F 100% 29.91 in 7.0 mi South 4.6 mph - N/A   Clear
3:35 AM 29.3 °F - 29.1 °F 99% 29.91 in 7.0 mi Calm Calm - N/A   Clear
3:55 AM 29.1 °F - 29.1 °F 100% 29.90 in 7.0 mi Calm Calm - N/A   Clear
4:15 AM 30.2 °F - 30.2 °F 100% 29.90 in 7.0 mi Calm Calm - N/A   Clear
4:35 AM 28.0 °F 24.2 °F 28.0 °F 100% 29.90 in 7.0 mi SW 3.5 mph - N/A   Clear
5:15 AM 32.5 °F - 32.5 °F 100% 29.90 in 7.0 mi Calm Calm - N/A   Overcast
5:35 AM 32.5 °F 28.1 °F 32.5 °F 100% 29.90 in 10.0 mi South 4.6 mph - N/A   Overcast
5:55 AM 33.3 °F 25.7 °F 33.3 °F 100% 29.90 in 10.0 mi SSW 9.2 mph - N/A   Overcast
6:15 AM 35.1 °F 25.2 °F 35.1 °F 100% 29.90 in 7.0 mi SW 16.1 mph 19.6 mph N/A   Overcast
6:35 AM 35.1 °F 25.2 °F 35.1 °F 100% 29.89 in 7.0 mi SW 16.1 mph 19.6 mph N/A   Overcast
6:55 AM 35.1 °F 27.4 °F 35.1 °F 100% 29.89 in 7.0 mi SW 10.4 mph - N/A   Overcast
7:15 AM 35.1 °F 28.6 °F 35.1 °F 100% 29.90 in 7.0 mi SW 8.1 mph - N/A   Overcast
7:35 AM 35.1 °F 27.4 °F 35.1 °F 100% 29.91 in 7.0 mi SW 10.4 mph - N/A   Overcast
7:55 AM 35.1 °F 27.9 °F 35.1 °F 100% 29.91 in 7.0 mi SW 9.2 mph - N/A   Overcast
8:15 AM 35.1 °F 28.6 °F 35.1 °F 100% 29.92 in 5.0 mi SSW 8.1 mph - N/A   Overcast
8:35 AM 35.1 °F 27.9 °F 35.1 °F 100% 29.91 in 5.0 mi SSW 9.2 mph - N/A   Overcast
8:55 AM 35.1 °F 27.9 °F 35.1 °F 100% 29.92 in 5.0 mi SSW 9.2 mph - N/A   Overcast
9:15 AM 35.1 °F 28.6 °F 35.1 °F 100% 29.91 in 7.0 mi SSW 8.1 mph - N/A   Overcast
9:35 AM 35.1 °F 26.9 °F 35.1 °F 100% 29.91 in 7.0 mi SSW 11.5 mph - N/A   Overcast
9:55 AM 35.1 °F 25.9 °F 34.9 °F 99% 29.91 in 7.0 mi SSW 13.8 mph - N/A   Overcast
10:15 AM 35.6 °F 26.2 °F 35.6 °F 100% 29.91 in 7.0 mi SW 15.0 mph 18.4 mph N/A   Overcast
10:35 AM 37.6 °F 29.6 °F 37.2 °F 99% 29.91 in 10.0 mi SSW 12.7 mph 17.3 mph N/A   Overcast
10:55 AM 37.6 °F 29.1 °F 36.7 °F 97% 29.90 in 10.0 mi SSW 13.8 mph - N/A   Overcast
11:15 AM 37.6 °F 29.1 °F 36.5 °F 96% 29.90 in 10.0 mi SSW 13.8 mph 17.3 mph N/A   Overcast
11:35 AM 38.1 °F 29.8 °F 36.5 °F 94% 29.89 in 10.0 mi South 13.8 mph - N/A   Overcast
11:55 AM 38.8 °F 30.0 °F 36.7 °F 92% 29.89 in 10.0 mi SSW 16.1 mph - N/A   Overcast
12:15 PM 40.1 °F 31.6 °F 36.7 °F 88% 29.88 in 10.0 mi SSW 16.1 mph - N/A   Overcast
12:35 PM 41.7 °F 34.8 °F 37.0 °F 83% 29.87 in 10.0 mi South 12.7 mph - N/A   Mostly Cloudy
12:55 PM 45.9 °F 40.0 °F 39.7 °F 79% 29.87 in 10.0 mi SSW 12.7 mph 19.6 mph N/A   Mostly Cloudy
1:15 PM 47.7 °F - 39.7 °F 74% 29.85 in 10.0 mi SW 17.3 mph - N/A   Scattered Clouds
1:35 PM 47.7 °F - 39.4 °F 73% 29.84 in 10.0 mi SW 16.1 mph 23.0 mph N/A   Scattered Clouds
1:55 PM 48.0 °F - 39.6 °F 73% 29.83 in 10.0 mi SW 13.8 mph - N/A   Scattered Clouds
2:15 PM 50.2 °F - 39.7 °F 67% 29.82 in 10.0 mi SW 21.9 mph 25.3 mph N/A   Clear
2:35 PM 52.7 °F - 40.8 °F 64% 29.82 in 10.0 mi SW 18.4 mph 26.5 mph N/A   Clear
2:55 PM 52.7 °F - 40.5 °F 63% 29.82 in 10.0 mi SW 17.3 mph 28.8 mph N/A   Clear
3:15 PM 52.7 °F - 39.6 °F 61% 29.82 in 10.0 mi SW 17.3 mph 25.3 mph N/A   Clear
3:35 PM 52.7 °F - 39.2 °F 60% 29.82 in 10.0 mi SW 16.1 mph 26.5 mph N/A   Scattered Clouds
3:55 PM 52.7 °F - 39.4 °F 61% 29.83 in 10.0 mi WSW 16.1 mph - N/A   Mostly Cloudy
4:15 PM 52.7 °F - 38.5 °F 58% 29.84 in 10.0 mi SW 18.4 mph 27.6 mph N/A   Mostly Cloudy
4:35 PM 52.7 °F - 39.6 °F 61% 29.85 in 10.0 mi WSW 12.7 mph 25.3 mph N/A   Mostly Cloudy
4:55 PM 52.7 °F - 39.6 °F 61% 29.85 in 10.0 mi WSW 11.5 mph 20.7 mph N/A   Mostly Cloudy
5:15 PM 52.7 °F - 39.6 °F 61% 29.86 in 10.0 mi WSW 13.8 mph 19.6 mph N/A   Overcast
5:35 PM 50.2 °F - 37.9 °F 63% 29.87 in 10.0 mi West 15.0 mph 25.3 mph N/A   Mostly Cloudy
5:55 PM 48.4 °F - 37.8 °F 67% 29.88 in 10.0 mi West 9.2 mph 17.3 mph N/A   Scattered Clouds
6:15 PM 47.7 °F - 37.0 °F 67% 29.89 in 10.0 mi West 12.7 mph 17.3 mph N/A   Clear
6:35 PM 47.7 °F - 36.3 °F 65% 29.90 in 10.0 mi WSW 9.2 mph - N/A   Clear
6:55 PM 47.7 °F - 36.9 °F 66% 29.91 in 10.0 mi WSW 8.1 mph - N/A   Clear
7:15 PM 47.7 °F - 36.5 °F 65% 29.92 in 10.0 mi WSW 5.8 mph - N/A   Scattered Clouds
7:35 PM 45.1 °F 41.4 °F 34.9 °F 67% 29.93 in 10.0 mi West 6.9 mph - N/A   Scattered Clouds
7:55 PM 45.0 °F 38.9 °F 36.5 °F 72% 29.95 in 10.0 mi WNW 12.7 mph 16.1 mph N/A   Mostly Cloudy
8:15 PM 44.8 °F 41.0 °F 36.3 °F 72% 29.95 in 10.0 mi WNW 6.9 mph - N/A   Scattered Clouds
8:35 PM 42.3 °F 37.3 °F 36.0 °F 78% 29.96 in 10.0 mi NW 8.1 mph - N/A   Clear
8:55 PM 40.6 °F 33.4 °F 35.4 °F 82% 29.97 in 10.0 mi NW 12.7 mph 18.4 mph N/A   Scattered Clouds
9:15 PM 40.1 °F 33.6 °F 34.7 °F 81% 29.98 in 10.0 mi NW 10.4 mph 16.1 mph N/A   Clear
9:35 PM 38.8 °F 34.6 °F 33.6 °F 82% 29.99 in 10.0 mi NW 5.8 mph - N/A   Clear
9:55 PM 38.3 °F 35.9 °F 33.3 °F 82% 29.99 in 10.0 mi WNW 3.5 mph - N/A   Clear
10:15 PM 37.6 °F 33.1 °F 32.5 °F 82% 30.00 in 10.0 mi WNW 5.8 mph - N/A   Clear
10:35 PM 37.6 °F - 32.5 °F 82% 30.00 in 10.0 mi Calm Calm - N/A   Clear
10:55 PM 37.6 °F - 32.7 °F 83% 30.00 in 10.0 mi Calm Calm - N/A   Scattered Clouds
11:15 PM 35.6 °F 32.8 °F 32.2 °F 87% 30.00 in 10.0 mi SW 3.5 mph - N/A   Overcast
11:35 PM 35.1 °F 31.0 °F 32.0 °F 89% 30.01 in 10.0 mi SW 4.6 mph - N/A   Mostly Cloudy
11:55 PM 32.5 °F 29.3 °F 31.3 °F 95% 30.01 in 10.0 mi West 3.5 mph - N/A   Clear